Погода в Пойнт-Лей

США     69°44′36″N   163°01′02″W
темп.,
°C
ветер,
м/с
пор.,
м/с
влажн.,
%
обл.,
%
осадки,
мм/ч
давл.,
гПа
погр.,
м
5 марта, пт
пт500:00−13в81292100 2.0 990217
03:00−11юв4781100 2.1 991122
06:00−12ю3380100 0.0 99222
09:00−15юв3377100 0.0 99421
12:00−15вюв4477100 0.0 99539
15:00−15юв457883 0.0 99644
18:00−15юв44730 0.0 99621
21:00−16юв457518 0.0 99724
6 марта, сб
сб600:00−16ю567535 0.0 99947
03:00−16ююв457720 0.0 100127
06:00−18ю338733 0.0 100324
09:00−20вюв238333 0.0 100520
12:00−19ююз11842 0.0 100721
15:00−17сз239351 0.0 100883
18:00−21всв1110028 0.0 100920
21:00−21юв338531 0.0 101020
7 марта, вс
вс700:00−20юв34800 0.0 101221
03:00−20в56770 0.0 101245
06:00−19в7107440 0.0 1011135
09:00−16вюв697760 0.0 1009136
12:00−9вюв6879100 0.0 1008130
15:00−5вюв698098 0.0 1006155
18:00−3вюв61273100 0.0 1003164
21:00−3вюв71271100 0.0 1001164
8 марта, пн
пн800:00−5вюв71275100 0.0 1000175
03:00−3юв81374100 0.0 999222
06:00−3вюв101570100 0.0 996208
09:00−3вюв91473100 0.0 994242
12:00−2вюв71274100 0.0 991333
15:00−2юв5977100 0.0 990287
18:00−3юв6879100 0.0 990123
21:00−9ююз14208596 0.0 992477
9 марта, вт
вт900:00−12юз11179090 0.0 997440
03:00−15зюз7119495 0.1 1001257
06:00−16юз71092100 0.0 1004287
09:00−20юз3410064 0.0 100621
12:00−16ююв338369 0.0 100781
15:00−14юз697866 0.0 1008205
18:00−18зюз8108865 0.0 1009280
21:00−25з7109582 0.1 1012327